Tracking 19969 objects as of 13-Nov-2019
Live streaming from Space Station
objects crossing your sky now
Track the group of recently launched Starlink satellites

THORAD AGENA D DEB

Track THORAD AGENA D DEB now!
10-day predictions


NORAD ID: 4451
Int'l Code: 1969-082EW
Perigee: 718.2 km
Apogee: 777.3 km
Inclination: 70.0 °
Period: 99.6 minutes
Semi major axis: 7118 km
RCS: 0.0152 m2 (small)
Launch date: September 30, 1969
Source: United States (US)
Launch site: AIR FORCE WESTERN TEST RANGE (AFWTR)

Note: This is SATELLITE DEBRIS
aabbcc
Your satellite tracking list
Your tracking list is empty




NASA's NSSDC Master Catalog

Two Line Element Set (TLE):
1  4451U 69082EW  19316.60393457 +.00000191 +00000-0 +70754-4 0  9994
2  4451 070.0375 258.8506 0041513 289.4734 070.1915 14.45433196606851
Source of the keplerian elements: AFSPC